Theta_e
328 326 321 317 313 313 314 315 315 317 317 318 320 320 320 319 318 319 320 321 322 322 323 325 325 325 326 326 326 326 325 324 325 326 325 326 327 326 326 326 326 325 325 324 325 326 326 325 325 325 325 325 325 324 323 323 323 323 322 321 321 321 322
328 324 321 319 316 314 315 316 316 317 317 317 317 316 316 316 316 318 320 321 322 323 324 324 324 324 325 325 325 325 325 325 325 326 325 326 327 327 326 326 326 325 325 324 324 325 325 325 325 325 325 325 324 322 322 322 322 321 321 320 321 321 322
327 323 321 320 317 315 316 317 317 318 317 316 314 312 313 314 316 318 320 321 323 324 324 324 324 325 325 324 324 325 325 325 325 326 326 325 326 327 327 326 326 325 325 325 324 324 325 325 325 325 325 324 323 322 321 321 321 321 321 321 321 321 321
326 323 321 319 317 316 317 317 317 317 315 313 312 312 314 316 317 319 320 320 321 322 323 323 323 324 325 324 323 324 325 325 325 325 326 325 325 326 326 326 325 325 325 325 325 324 325 325 324 324 324 323 322 321 321 321 321 321 321 321 321 321 321
325 322 319 316 316 316 316 316 315 315 313 312 312 314 317 318 319 319 320 320 319 319 320 320 319 320 323 323 322 323 324 325 325 325 325 325 325 325 326 325 325 325 325 325 325 324 324 325 325 324 323 322 322 321 321 320 320 321 320 320 320 320 321
324 322 320 316 315 315 315 315 314 313 313 313 314 317 318 319 320 320 320 320 319 317 318 318 318 319 321 321 321 322 323 324 324 324 324 324 324 324 325 325 324 324 325 325 325 325 324 324 324 324 323 322 321 320 319 319 320 320 320 319 319 319 319
325 323 319 316 316 316 315 314 313 314 314 314 316 317 317 319 320 321 320 320 318 316 318 319 319 320 319 319 320 322 323 323 323 323 323 323 323 323 324 325 325 324 325 324 324 324 324 324 324 323 322 321 320 318 317 318 318 317 317 318 318 317 317
326 325 319 317 318 317 316 315 314 314 315 315 316 316 316 318 320 321 321 319 315 312 315 318 318 318 318 317 319 321 322 322 322 322 323 323 323 323 324 324 325 325 325 324 324 324 324 323 323 321 320 320 319 318 317 316 316 316 317 317 317 316 314
327 326 320 319 319 317 317 316 314 315 316 317 317 317 316 316 318 320 320 317 312 308 312 315 316 317 317 317 319 321 322 322 322 322 322 322 323 323 323 324 324 324 324 324 323 323 323 323 321 317 316 318 317 318 318 317 316 316 317 317 316 314 311
328 326 321 320 319 317 319 318 314 313 314 317 318 318 316 314 315 317 318 316 310 307 309 314 316 316 317 319 321 322 322 322 322 321 320 321 322 322 323 323 323 324 323 323 323 322 322 322 320 315 314 315 314 314 317 318 316 315 316 314 311 309 306
328 326 322 320 318 317 319 318 313 311 311 315 318 318 317 315 313 314 314 314 310 306 308 313 315 316 317 320 321 321 321 321 320 319 319 321 322 322 323 323 323 323 322 322 321 321 320 321 318 314 314 314 312 312 314 316 316 314 314 313 308 306 304
328 326 322 320 317 317 318 315 312 311 309 310 313 316 317 315 313 311 311 311 309 306 307 312 315 315 317 319 320 320 319 319 319 319 319 320 321 322 322 322 321 321 321 320 320 319 318 319 317 314 315 316 315 313 313 314 314 311 311 311 308 305 304
327 325 322 321 318 316 316 314 313 312 309 307 308 311 314 314 312 309 308 309 308 305 307 312 314 314 314 316 317 317 316 315 316 317 318 318 320 321 321 320 319 319 319 318 318 318 317 318 317 315 316 317 317 316 314 315 315 310 308 309 308 305 305
326 324 323 322 318 315 315 315 315 313 310 307 306 307 309 310 309 306 306 307 307 305 306 310 313 312 312 313 314 314 313 312 312 314 316 317 318 319 320 320 320 318 318 318 317 317 317 317 317 317 317 317 317 318 317 316 315 311 308 308 307 306 306
325 323 324 322 317 315 315 316 316 315 312 309 307 305 306 307 306 305 305 306 306 305 305 307 309 310 310 311 311 311 310 310 309 311 315 316 317 317 318 319 319 318 318 317 317 316 316 316 316 315 315 316 316 318 318 318 317 314 310 309 307 306 306
324 324 324 320 316 315 316 317 318 317 315 311 307 305 305 305 305 305 305 305 305 305 304 305 306 308 309 309 309 308 307 307 307 309 313 316 316 316 316 317 318 318 317 317 316 316 316 315 314 313 313 314 314 315 316 317 318 317 314 310 308 307 307
324 325 324 318 315 316 317 318 319 319 318 313 307 305 305 305 305 305 304 305 305 305 305 304 305 307 308 308 308 307 307 307 307 308 311 314 315 315 315 316 316 317 316 316 316 315 314 313 313 313 313 313 313 314 314 315 317 318 317 314 310 308 307
325 326 322 317 315 316 318 320 320 320 320 317 310 305 305 305 305 304 304 304 305 305 304 304 305 306 307 308 308 308 309 309 309 309 309 310 312 313 313 314 315 315 315 315 314 313 313 313 313 313 313 313 313 313 313 314 314 317 319 317 313 309 308
325 325 321 317 316 317 319 321 321 321 320 319 314 308 305 305 305 304 304 304 304 305 304 304 306 307 308 309 309 309 309 309 310 309 309 309 309 309 310 311 312 312 313 313 313 313 312 312 312 313 314 314 313 313 313 313 314 316 318 318 316 312 309
326 325 320 317 318 318 319 322 322 321 320 320 316 310 306 305 304 304 304 304 304 304 304 305 306 308 309 309 309 310 309 309 310 310 310 310 310 310 310 310 311 311 312 313 313 313 313 313 313 313 314 314 314 314 313 314 313 314 316 318 318 315 311
325 324 319 317 319 318 318 322 322 321 320 319 316 312 308 305 304 304 304 304 305 305 305 306 307 309 309 309 310 310 309 310 310 310 311 312 312 313 314 313 313 313 314 314 314 314 315 315 315 314 314 314 314 314 314 314 314 313 314 315 316 315 312
323 322 318 318 320 317 316 321 322 320 319 318 316 313 309 306 305 305 305 305 305 305 306 307 309 309 310 310 310 310 310 310 310 310 311 312 313 314 315 315 315 316 316 316 316 316 316 315 315 315 315 315 315 315 315 315 315 314 314 313 313 313 311
321 321 320 320 320 316 317 321 322 320 320 319 316 313 310 308 306 305 305 305 305 306 307 309 310 310 310 310 310 310 310 310 309 311 313 314 314 314 314 316 317 317 317 317 317 317 317 317 316 316 316 315 315 315 315 315 315 315 315 314 314 313 312
321 321 321 321 319 316 316 319 320 319 318 317 314 313 313 312 310 308 307 307 307 307 309 310 310 310 310 310 311 311 312 312 312 314 316 317 316 316 316 317 317 317 318 318 318 318 318 318 317 317 317 317 316 315 315 315 315 315 315 315 315 315 314
321 321 321 320 319 317 316 317 318 317 315 314 313 313 313 313 312 312 312 311 311 311 312 312 312 312 312 313 314 314 315 316 316 317 317 317 317 317 317 318 318 318 318 318 319 319 319 318 318 318 318 318 318 317 317 316 315 315 315 315 316 315 315
321 321 321 320 319 317 316 315 316 315 315 314 314 313 311 310 312 315 315 315 315 315 315 315 315 315 315 315 316 316 316 317 317 317 317 317 317 318 318 318 318 319 319 319 319 319 319 319 319 318 318 318 319 319 318 318 317 316 315 315 316 316 316
321 321 320 319 317 315 314 313 314 315 315 314 314 314 313 314 315 317 317 317 317 317 316 316 316 316 316 316 316 316 316 316 316 317 317 317 317 317 318 318 318 318 319 319 319 320 319 319 319 319 319 319 319 320 319 318 317 317 316 316 316 316 316
319 319 318 317 316 316 315 314 314 315 315 315 316 316 316 316 318 319 318 318 317 317 318 317 316 316 316 316 316 316 316 316 316 317 317 317 317 317 318 318 318 318 318 319 319 319 319 319 318 318 319 319 319 319 319 318 317 317 317 317 316 316 316
318 317 317 316 317 318 318 317 317 317 316 317 318 318 317 318 319 320 320 319 318 318 318 318 317 317 316 316 317 317 317 317 317 317 317 317 317 317 318 318 318 318 318 318 318 318 318 318 318 318 318 318 318 318 318 318 317 317 317 317 317 317 316
319 318 317 318 318 319 319 319 318 317 318 318 317 316 318 320 320 320 320 320 320 319 319 319 318 318 318 318 318 318 319 319 318 319 319 319 319 319 319 319 319 319 319 319 318 318 318 318 318 318 318 318 318 318 318 317 317 317 317 317 317 317 316
318 318 317 318 318 318 318 318 317 316 317 318 317 315 317 319 319 319 319 319 319 318 318 318 319 319 319 319 318 318 318 318 318 318 318 318 318 318 318 318 317 317 317 317 317 317 317 317 316 316 317 317 317 316 316 316 316 317 317 317 316 316 316
316 316 317 317 316 316 316 316 315 315 316 316 316 315 316 316 316 316 316 316 316 316 316 316 316 317 317 317 317 316 316 316 315 315 315 315 314 314 314 314 313 313 313 313 313 313 312 313 312 312 313 314 314 313 313 313 315 316 316 316 316 315 315
311 312 313 313 313 313 313 312 313 314 314 314 315 314 314 314 314 314 314 313 313 314 313 313 313 314 314 314 314 314 314 313 313 313 313 313 312 312 312 312 312 312 312 311 311 310 310 310 310 310 310 311 311 311 311 311 313 314 315 315 315 314 314
305 307 308 309 309 310 310 309 310 311 312 312 312 311 311 311 311 310 310 310 309 309 309 309 310 311 311 312 312 311 311 311 311 312 312 312 312 312 312 312 312 312 312 312 311 311 310 309 309 309 309 309 309 310 310 311 312 314 314 314 314 313 314
303 303 304 305 305 306 307 307 308 308 309 310 310 309 309 309 309 308 308 308 308 308 309 309 309 309 309 310 310 310 310 309 309 309 309 309 309 309 309 310 311 311 311 311 311 311 311 311 310 309 309 309 309 309 309 311 312 313 314 314 314 314 314
300 301 301 301 301 302 302 303 303 304 304 305 306 306 307 307 308 308 307 307 307 307 308 308 309 309 309 309 309 309 309 308 308 307 306 305 305 305 305 305 306 308 309 310 311 310 310 311 311 311 310 310 310 310 309 310 312 314 314 314 314 314 314
298 298 299 299 299 299 299 299 299 300 300 300 300 301 301 302 303 303 303 302 302 302 302 303 303 304 305 305 306 306 306 305 304 303 302 302 302 302 302 302 302 304 305 307 309 310 311 311 311 311 311 311 311 311 311 311 312 314 314 314 313 314 313
Wind_Speed
16 16 15 13 13 13 13 13 13 12 12 12 11 11 10 9 8 7 7 7 7 6 7 7 7 7 7 7 7 7 8 9 9 8 8 9 8 8 8 8 5 1 1 5 6 8 10 10 9 7 6 6 5 5 6 6 6 6 6 6 6 6 7
17 16 16 15 14 14 14 13 13 12 11 11 11 11 10 9 8 7 7 7 7 6 6 6 6 6 6 6 6 6 7 7 8 9 9 9 8 8 8 8 6 4 3 5 6 6 9 11 10 9 7 6 5 7 7 8 9 9 9 9 9 9 9
19 17 16 15 14 15 14 13 13 12 11 11 11 11 10 9 8 8 7 7 6 6 6 6 6 6 5 5 5 6 6 7 7 7 7 8 8 8 7 7 6 5 5 6 7 7 7 8 10 10 7 6 7 10 10 10 11 11 11 11 11 11 10
19 17 16 15 15 15 14 13 12 11 11 11 11 11 10 9 8 8 7 6 5 5 5 5 5 6 5 5 5 5 6 7 6 6 6 7 8 8 7 5 3 4 5 4 5 7 7 7 10 12 8 7 9 11 12 12 12 12 12 12 12 12 11
17 16 15 15 15 14 14 13 12 12 11 12 12 12 10 9 8 7 6 5 4 4 5 5 5 6 6 5 5 6 6 7 6 5 5 5 5 6 7 5 4 6 5 2 3 6 7 7 10 11 10 8 9 11 13 13 13 13 13 13 13 13 12
15 14 14 14 14 14 13 12 12 13 12 12 13 12 11 10 9 7 7 6 5 5 6 6 6 7 7 6 6 6 6 6 5 4 4 3 3 5 6 6 6 7 5 3 4 5 6 7 9 10 9 8 9 13 14 14 14 13 13 13 13 13 12
14 13 13 13 13 13 13 12 12 12 12 12 12 11 11 11 10 8 6 6 5 6 7 7 7 7 7 7 6 6 5 4 4 3 3 2 2 3 6 7 7 7 5 4 4 5 4 5 7 9 9 10 11 13 13 13 13 12 12 13 12 12 10
14 12 12 12 12 12 13 13 13 12 11 11 11 10 10 10 10 8 6 5 4 6 8 8 8 7 7 7 7 6 5 4 4 4 4 3 3 3 5 7 7 6 5 4 4 5 4 3 6 6 7 11 14 14 11 11 12 11 11 12 11 10 9
14 12 12 12 11 11 12 13 13 12 11 10 10 9 9 9 9 8 6 5 4 5 8 9 8 7 7 8 9 8 7 7 6 6 6 6 4 4 4 6 7 6 5 4 5 6 6 7 8 7 5 9 13 14 12 9 9 10 11 11 10 9 8
14 12 11 12 11 11 12 12 12 12 11 10 9 9 8 8 8 8 7 6 4 5 8 10 8 7 8 9 10 9 8 8 8 7 7 7 6 5 5 6 7 7 6 6 7 9 11 12 11 10 10 8 9 11 12 10 9 10 10 10 9 9 9
13 11 10 10 11 12 13 12 12 12 11 10 9 8 8 8 7 7 7 6 4 5 8 11 9 8 9 10 10 9 8 8 7 7 8 8 8 8 7 8 8 8 8 10 12 14 14 14 12 11 11 10 9 9 9 10 11 11 10 10 9 9 10
13 12 11 11 12 12 13 13 12 12 11 10 9 8 8 7 7 7 7 7 5 5 8 11 10 9 9 10 9 8 8 8 7 7 8 9 10 10 9 10 10 10 11 13 15 16 15 14 12 9 7 7 7 7 7 7 9 10 10 9 9 9 11
15 13 12 12 12 12 12 12 12 11 10 9 9 8 8 7 7 7 8 8 6 5 8 11 11 10 10 10 9 8 7 8 8 7 8 10 11 10 10 10 11 11 12 14 15 15 14 13 11 8 3 2 3 3 4 4 5 6 8 9 9 10 11
16 14 13 12 12 12 13 12 11 10 9 8 8 9 8 7 7 8 8 8 7 6 8 11 11 10 10 11 9 8 7 7 7 8 8 9 10 10 9 9 9 10 11 12 12 11 11 9 7 5 1 1 2 2 1 1 2 3 5 8 9 10 11
16 15 13 12 12 13 13 13 11 9 8 8 8 9 8 8 8 8 9 9 9 8 8 10 11 11 11 11 10 8 7 6 7 8 8 8 8 9 8 7 7 7 8 8 8 8 6 5 3 1 2 3 4 6 5 4 2 2 3 5 8 10 10
17 15 13 12 13 14 14 13 12 9 7 6 7 8 9 9 8 9 10 10 10 9 8 10 11 12 12 11 10 8 7 6 7 9 9 7 7 8 7 6 6 5 5 5 5 4 2 1 0 1 3 4 5 6 7 8 6 4 5 5 6 9 10
17 15 13 12 13 15 15 13 12 10 7 5 6 7 7 8 9 9 10 11 11 10 9 10 11 12 12 12 10 9 9 9 10 9 9 8 7 6 5 5 4 3 3 2 2 1 1 0 1 2 2 3 3 4 5 7 8 8 8 7 7 9 11
18 16 13 12 14 16 15 13 11 10 7 5 5 6 6 7 9 9 10 11 11 11 11 11 12 13 13 12 12 11 11 11 10 10 9 8 6 5 5 5 4 4 3 3 3 3 2 2 2 3 3 3 3 3 3 4 6 8 10 10 9 10 11
18 16 14 14 15 16 15 14 12 10 8 6 4 4 5 6 8 9 11 12 13 12 13 13 14 14 14 13 12 11 10 10 9 9 8 7 6 5 5 5 5 5 5 5 5 5 4 4 4 3 3 3 3 3 3 3 3 5 9 12 12 11 11
19 17 15 15 15 15 16 15 13 11 8 6 5 4 4 6 9 10 11 14 15 14 14 15 15 15 15 14 13 11 10 9 8 8 7 6 6 6 5 4 4 4 4 4 4 4 4 5 4 4 4 4 4 4 3 3 3 3 6 11 13 13 13
19 18 17 17 16 15 16 16 15 12 10 8 6 5 4 6 9 11 12 15 15 15 16 16 16 15 14 13 13 11 10 9 8 7 7 7 7 6 5 4 4 3 3 3 3 4 4 4 4 5 5 5 5 5 5 5 4 5 6 9 12 14 14
21 20 20 19 18 16 16 16 16 13 10 9 8 7 6 6 9 11 12 14 15 15 16 16 15 14 13 12 11 11 10 9 7 7 6 6 7 7 6 5 3 3 3 4 4 4 5 5 5 5 6 6 6 6 6 6 6 7 8 9 12 14 16
22 22 21 21 21 19 17 16 16 14 11 10 9 8 8 7 8 10 11 12 13 14 14 15 14 13 12 11 10 9 9 8 7 6 4 4 5 6 6 5 3 2 2 3 4 4 5 6 6 7 7 7 7 7 8 8 8 9 10 11 13 14 16
22 21 22 22 20 18 17 14 13 13 12 10 10 9 9 8 8 9 10 11 12 12 12 13 13 12 12 11 10 9 9 8 7 6 5 5 5 6 6 6 5 4 4 4 5 6 6 7 8 8 9 9 9 9 9 9 10 10 11 12 14 15 16
21 21 21 20 18 16 17 18 17 16 15 13 11 10 10 10 9 9 9 10 11 12 12 13 13 13 12 12 11 10 10 9 9 8 8 8 7 7 8 8 8 7 7 7 8 8 9 9 10 10 10 11 11 11 11 11 12 13 13 14 15 16 17
18 18 18 18 16 13 13 16 18 16 15 14 13 12 10 9 10 9 10 10 11 12 14 14 14 14 14 13 13 13 13 12 12 12 12 11 11 11 11 11 11 11 11 11 11 11 12 12 13 13 13 13 14 14 14 14 14 15 15 16 17 18 19
15 17 16 15 13 10 11 15 17 16 15 15 16 16 13 11 11 11 11 12 12 13 14 15 15 15 15 15 15 15 15 14 14 15 15 15 15 15 15 15 15 15 15 15 15 15 14 15 15 16 16 16 17 17 16 16 17 17 18 18 19 20 20
12 14 15 14 12 11 12 15 15 16 16 16 17 16 14 13 12 12 12 12 13 13 15 16 16 16 15 15 15 15 16 16 16 17 17 17 17 17 18 17 17 17 17 17 17 17 17 17 18 19 19 19 20 19 19 19 20 20 21 21 21 21 22
11 11 11 11 11 10 11 12 13 15 15 15 13 13 13 12 12 12 12 12 12 13 14 15 16 17 16 16 16 17 17 17 18 18 18 18 18 18 18 18 18 19 19 19 19 19 20 20 21 21 21 22 22 22 22 22 22 23 23 22 22 23 23
11 9 8 7 8 8 8 10 11 12 13 14 14 13 12 12 13 13 13 13 14 14 15 15 16 17 17 18 18 18 19 19 19 19 19 19 20 20 20 20 21 21 21 21 21 21 22 23 23 22 22 23 23 24 24 24 24 24 23 23 23 22 22
9 7 6 7 7 7 8 8 8 8 10 13 13 13 13 12 12 13 13 13 13 12 12 13 14 16 17 18 18 18 18 19 19 19 19 20 20 20 20 21 21 22 22 22 22 23 23 23 22 22 22 23 24 24 25 24 24 23 23 22 22 21 21
9 8 7 7 7 7 7 7 7 7 8 8 9 10 10 10 10 10 10 11 12 12 12 13 14 14 15 16 16 16 17 17 17 17 17 18 18 18 18 18 19 20 20 21 21 21 21 21 21 21 21 22 24 24 23 22 22 21 21 20 20 20 20
9 8 8 8 7 6 5 5 5 5 6 6 6 6 7 7 8 9 9 9 10 12 14 14 14 14 14 14 14 15 15 15 16 17 17 18 18 17 17 18 18 19 19 19 20 20 20 21 21 22 22 23 24 24 23 23 22 21 21 20 19 19 19
7 7 7 6 5 4 3 3 4 4 5 5 5 6 6 7 8 9 9 9 9 10 12 13 14 14 14 15 15 16 17 18 19 19 20 20 20 20 20 20 21 22 22 21 21 22 22 22 22 23 23 23 23 23 22 23 22 21 21 20 18 18 20
4 3 2 2 2 3 3 5 5 6 7 8 8 9 10 11 11 12 13 14 15 16 17 18 18 19 19 19 20 21 22 23 24 25 25 25 25 25 25 25 25 26 26 25 25 25 25 25 25 25 25 24 24 24 23 22 22 22 22 20 18 19 21
2 1 0 1 2 3 4 6 7 8 9 10 12 13 14 15 16 17 18 19 20 21 22 24 25 25 26 26 27 27 28 29 30 30 30 29 29 29 29 28 28 29 29 29 30 29 29 29 28 28 27 27 26 26 24 23 23 23 23 21 19 20 23
2 1 2 2 3 4 5 6 7 8 9 10 11 13 14 15 17 18 19 19 20 21 22 23 25 26 27 29 30 30 30 31 31 31 30 30 30 30 30 30 30 29 29 30 30 31 31 30 30 29 29 28 27 26 25 25 24 23 22 22 22 23 24
Wind_Direction
183 175 167 167 167 165 167 172 177 177 174 171 171 175 177 173 169 169 170 171 174 174 171 172 177 180 185 196 200 199 202 201 188 181 191 201 206 207 204 203 202 200 137 144 150 157 151 142 143 149 153 156 161 143 134 138 136 128 123 117 115 116 115
179 173 168 165 161 161 164 170 173 174 172 170 171 177 178 173 169 168 167 168 170 171 171 168 163 162 171 184 195 203 203 197 188 182 187 195 206 215 211 210 215 223 208 165 157 159 153 148 151 157 157 159 154 138 132 129 125 122 118 114 113 115 117
175 174 170 166 163 162 164 168 170 171 172 173 174 173 168 164 163 162 162 166 170 174 174 168 159 157 161 171 186 200 199 193 190 189 191 193 196 201 200 202 212 222 213 186 172 166 154 148 156 159 153 152 145 133 128 124 120 118 114 111 111 112 115
177 176 175 170 165 162 163 166 165 165 168 171 170 163 157 155 154 154 154 160 171 179 178 170 163 163 166 172 181 192 197 196 195 197 202 201 193 187 188 194 195 201 209 198 182 179 165 145 152 158 153 142 137 132 130 127 121 119 116 114 114 115 115
181 180 178 170 163 162 164 163 158 156 159 160 161 158 156 156 152 151 149 150 163 178 181 180 171 165 167 174 179 184 195 199 201 201 202 207 205 191 189 194 169 158 176 192 189 190 174 149 149 156 152 139 134 133 132 129 126 125 123 121 121 120 118
184 183 178 167 160 161 160 157 152 151 152 154 158 160 160 158 152 150 148 144 148 160 169 171 164 157 159 165 172 178 188 196 196 193 187 187 199 193 188 190 169 153 158 171 168 178 179 159 149 149 145 138 136 135 134 133 131 128 128 127 125 123 120
182 179 173 164 158 157 152 146 144 143 145 149 153 156 158 157 152 148 146 142 144 157 163 161 157 154 152 153 158 166 176 183 178 166 154 150 157 175 182 185 179 168 169 177 161 163 181 172 153 149 145 138 137 136 134 135 133 129 132 132 127 124 122
179 173 168 163 156 154 148 140 138 140 141 145 147 146 148 151 151 150 148 141 144 163 169 165 160 157 152 150 147 145 147 142 129 116 103 103 121 151 174 183 188 187 187 190 166 155 162 158 140 135 141 145 141 137 135 135 136 138 141 138 132 130 129
176 173 167 163 154 151 148 140 139 142 144 146 146 143 143 144 145 147 147 140 143 164 172 170 165 162 157 145 133 124 120 114 105 96 87 84 97 128 158 171 179 185 187 183 164 146 138 140 131 105 112 150 147 141 143 141 142 149 150 146 142 143 144
175 175 168 161 156 155 151 144 143 146 150 153 152 151 150 145 139 141 142 138 136 153 169 171 169 167 157 138 124 116 112 107 96 88 82 81 88 110 139 153 158 164 168 158 146 137 130 134 130 104 99 120 129 137 148 152 155 161 161 158 155 157 158
176 175 171 165 164 162 156 150 148 147 151 158 160 160 159 152 142 140 142 139 131 142 164 171 171 168 155 135 122 118 117 110 99 91 86 86 90 98 118 138 141 141 142 137 134 130 125 128 131 113 99 97 97 110 131 147 159 166 167 168 169 169 167
177 178 176 173 171 167 161 158 153 148 150 155 161 166 165 158 148 143 145 143 132 135 158 168 168 166 156 138 127 126 124 116 109 105 97 91 92 95 104 117 121 124 128 128 127 125 121 125 135 132 108 93 91 93 102 127 153 166 170 174 180 180 176
178 180 180 174 172 170 164 161 154 146 145 149 155 164 166 162 152 145 147 148 140 132 151 164 166 166 163 151 140 137 133 124 118 117 109 97 92 93 99 106 108 112 119 121 123 122 120 126 141 150 137 67 64 78 85 102 132 161 173 179 186 188 186
179 181 180 173 171 170 164 159 152 143 143 148 154 158 163 164 154 146 149 154 150 137 144 159 164 167 167 160 152 146 142 137 130 125 119 108 99 95 98 105 106 105 107 108 108 107 110 119 135 153 161 350 341 324 318 110 119 157 183 189 193 196 196
181 182 180 174 171 170 165 159 152 145 144 151 155 154 158 163 157 151 156 161 158 149 146 154 162 167 166 160 153 148 147 149 143 136 128 120 112 104 100 104 106 102 100 97 95 95 97 102 112 148 291 299 298 297 292 277 237 217 227 216 207 207 205
183 184 182 177 173 169 164 159 154 149 144 148 155 155 157 162 162 161 163 166 164 161 156 154 159 163 160 153 147 141 138 139 139 140 139 134 124 116 111 112 111 109 108 106 104 103 94 81 75 285 293 297 298 298 291 282 265 240 248 250 228 220 217
184 186 184 180 175 167 161 156 153 148 139 140 156 162 162 163 165 168 168 169 169 168 166 160 157 158 154 147 141 134 129 128 128 132 139 145 144 140 139 138 139 138 138 148 168 190 227 267 286 288 293 304 313 313 296 279 262 244 245 252 243 231 228
186 187 185 181 173 167 163 159 155 151 140 130 147 166 170 166 167 169 169 170 171 170 169 163 158 157 153 147 143 138 134 131 129 130 134 141 152 160 167 174 179 190 205 219 231 236 238 257 279 276 275 284 300 313 316 291 260 241 235 239 245 243 234
187 188 187 180 170 166 168 166 160 154 143 126 132 160 173 173 169 168 170 170 170 169 168 163 160 159 156 153 150 149 147 144 142 142 142 145 150 158 170 185 201 215 226 236 242 249 259 272 276 266 262 270 279 291 309 320 290 240 224 229 239 246 242
189 190 189 182 172 168 171 171 166 160 149 132 129 150 171 179 174 171 172 171 170 169 168 166 165 164 163 161 161 160 161 161 160 161 162 163 165 169 176 189 205 220 231 240 250 266 278 284 284 278 273 276 282 284 279 286 295 260 229 229 238 246 248
191 192 192 187 181 175 173 173 171 166 156 141 134 143 165 184 181 176 176 175 173 173 172 172 171 171 171 171 172 173 174 175 177 178 181 185 187 186 184 187 200 219 239 254 273 288 293 298 302 301 299 296 294 290 279 265 258 256 247 240 241 247 251
191 194 195 193 192 186 179 178 177 174 165 153 149 149 157 177 182 178 179 180 180 180 179 179 179 179 180 181 182 185 187 189 191 193 197 202 205 205 198 191 200 224 247 263 279 290 295 304 312 313 315 315 310 306 301 290 275 266 263 258 255 256 254
191 193 197 198 197 189 176 171 175 178 173 162 158 154 151 165 176 175 178 184 187 189 189 190 191 192 193 194 198 203 206 209 209 208 211 213 216 213 203 196 201 222 250 267 279 287 290 297 301 303 307 309 310 309 305 301 294 283 275 272 270 269 264
196 199 201 203 202 194 185 184 191 197 191 173 162 157 153 158 168 171 175 180 186 193 198 201 204 206 206 207 209 210 212 216 217 216 219 219 216 211 208 213 224 234 250 263 272 279 283 287 290 292 295 295 296 296 295 295 293 286 281 276 273 273 271
203 207 208 212 221 222 217 219 222 219 208 194 184 176 168 166 169 174 178 181 184 190 198 203 204 206 208 209 211 211 213 217 221 226 231 232 232 229 228 234 241 249 259 266 272 276 280 286 290 289 289 287 286 286 286 287 287 285 284 281 277 275 272
212 216 216 220 228 228 219 214 212 210 209 210 210 207 201 195 192 196 200 200 200 201 205 207 208 209 211 213 217 221 224 227 231 234 239 242 244 244 245 248 250 255 261 267 272 276 277 281 285 286 286 283 282 281 278 277 279 280 281 280 279 279 277
214 216 212 208 205 198 195 200 205 210 215 218 215 215 221 223 219 220 224 223 222 222 222 221 222 223 224 226 230 232 235 238 239 240 242 243 244 246 248 251 253 255 258 263 268 272 275 278 280 281 281 279 279 278 276 276 279 280 280 279 278 279 280
194 195 192 190 189 193 199 205 212 216 217 216 211 212 222 229 230 233 236 237 239 239 237 235 235 236 239 241 243 246 248 249 249 249 248 247 247 248 250 252 255 257 259 262 266 270 272 274 275 276 276 276 276 276 276 278 280 281 281 280 278 278 279
173 175 179 184 192 200 203 208 212 213 216 218 212 210 218 225 229 232 233 234 237 240 241 241 241 242 245 247 249 252 255 257 256 256 254 253 253 254 255 258 259 261 263 265 267 270 270 271 271 273 274 274 274 274 276 278 279 280 281 280 279 279 278
157 161 171 180 191 200 205 209 206 199 202 209 209 212 217 219 222 225 227 229 231 234 239 242 244 247 248 250 253 256 259 261 261 261 260 259 260 261 262 263 263 264 266 267 267 268 267 268 268 269 271 272 273 274 275 277 278 279 280 280 280 278 276
136 148 169 179 187 196 204 209 205 193 195 204 211 219 222 222 225 228 230 232 231 232 239 245 249 252 253 255 257 259 261 262 262 263 263 264 265 267 268 269 269 270 270 269 267 265 263 263 264 266 267 269 271 273 274 276 278 279 280 281 280 279 278
122 136 153 159 167 180 187 192 198 198 200 206 215 220 221 226 235 237 240 247 248 253 263 265 261 258 258 259 260 261 262 262 264 266 268 270 272 274 275 276 275 274 271 268 266 264 264 265 267 268 269 270 272 274 276 278 278 279 281 282 282 282 281
115 123 130 133 140 151 154 157 173 189 199 208 221 232 236 247 255 256 259 265 264 264 266 266 265 264 264 264 265 267 268 269 271 271 272 274 275 276 278 279 276 273 270 269 268 269 271 273 275 275 275 275 277 279 280 279 277 277 279 281 283 284 281
108 116 126 131 139 150 156 165 179 195 209 216 224 237 248 256 263 267 269 274 274 270 267 267 270 272 273 274 276 279 280 281 281 280 280 280 279 280 280 280 277 275 273 272 272 273 275 276 276 276 276 276 278 279 279 278 277 275 275 275 277 280 277
86 100 121 153 187 218 233 236 240 245 251 252 252 256 259 261 264 268 272 274 275 275 275 275 275 275 276 277 278 279 282 283 283 283 283 281 281 280 280 278 277 276 276 275 275 275 275 274 273 273 274 274 275 276 277 279 277 274 273 272 271 273 270
68 56 345 255 249 256 257 256 257 260 263 265 265 267 268 270 272 274 277 278 278 278 278 278 278 278 277 277 277 277 278 279 279 280 279 278 277 276 275 274 273 272 273 273 273 274 273 272 271 271 271 270 271 273 275 277 277 274 272 270 268 265 261
31 358 326 300 290 284 277 275 273 270 269 269 269 270 271 272 273 274 275 276 276 276 276 276 276 276 275 274 275 275 275 275 275 275 275 275 275 274 273 272 271 271 271 270 271 272 272 271 271 270 269 269 270 272 274 276 276 273 270 268 266 261 255